Location: Litvinovka
(48.6667°N, 34.3500°E)
Time: 03:35:34
(UTC+00:00)

Terra - Pass Details

Date: 18 September 2020
Orbit: 701 x 703 km, 98.2° (Epoch: 22 October)

Event Time Altitude Azimuth Distance (km) Brightness Sun altitude
Exits shadow 20:19:12 21° 320° (NW) 1,581 4.1 -37.2°
Drops below altitude 10° 20:20:56 10° 332° (NNW) 2,182 5.1 -37.3°
Sets 20:23:21 0° 340° (NNW) 3,105 6.1 -37.5°
